This demonstration page uses our WeatherBlox Daily Observations layout. Learn more.

Hourly Observations for July 11, 2017

Temp ( °F °C ) Dew Point ( °F °C ) Humidity (%) Winds ( mph kmh ) Pressure ( in mb ) Visibility ( mi km ) Precip ( " mm )
12:54 am 00:54 Clear 79 26.1 74 23.3 85 85 E 7 11 29.78 1009 10 16.0934 0 0
1:54 am 01:54 Clear 79 26.1 74 23.3 85 85 NE 8 13 29.81 1010 10 16.0934 0 0
2:54 am 02:54 Clear 76 24.4 70 21.1 82 82 NNE 9 15 29.82 1010 10 16.0934 0 0
3:54 am 03:54 Clear 75 23.9 66 18.9 74 74 NNE 16 26 29.85 1011 10 16.0934 0 0
4:54 am 04:54 Clear 74 23.3 65 18.3 74 74 E 8 13 29.84 1011 10 16.0934 0 0
5:54 am 05:54 Clear 75 23.9 66 18.9 74 74 ESE 8 13 29.83 1010 10 16.0934 0 0
6:54 am 06:54 Sunny 76 24.4 68 20 77 77 SE 10 17 29.81 1009 10 16.0934 0 0
7:54 am 07:54 Sunny 77 25 70 21.1 79 79 SSE 15 24 29.79 1009 10 16.0934 0 0
8:54 am 08:54 Sunny 81 27.2 73 22.8 77 77 SSE 12 19 29.79 1009 10 16.0934 0 0
9:54 am 09:54 Sunny 83 28.3 74 23.3 74 74 SSE 14 22 29.78 1009 10 16.0934 0 0
10:54 am 10:54 Mostly Sunny 86 30 74 23.3 67 67 S 10 17 29.78 1009 10 16.0934 0 0
11:54 am 11:54 Sunny 88 31.1 75 23.9 66 66 S 13 20 29.77 1008 10 16.0934 0 0
12:54 pm 12:54 Sunny 90 32.2 75 23.9 62 62 S 12 19 29.75 1008 10 16.0934 0 0
1:54 pm 13:54 Sunny 92 33.3 76 24.4 60 60 S 13 20 29.73 1007 10 16.0934 0 0
2:54 pm 14:54 Sunny 93 33.9 75 23.9 56 56 S 18 30 29.71 1006 10 16.0934 0 0
3:54 pm 15:54 Sunny 94 34.4 74 23.3 52 52 S 15 24 29.71 1006 10 16.0934 0 0
4:54 pm 16:54 Sunny 96 35.6 72 22.2 46 46 SSW 8 13 29.7 1006 10 16.0934 0 0
5:54 pm 17:54 Sunny 94 34.4 72 22.2 49 49 S 8 13 29.69 1006 10 16.0934 0 0
6:54 pm 18:54 Sunny 94 34.4 72 22.2 49 49 S 8 13 29.68 1005 10 16.0934 0 0
7:54 pm 19:54 Sunny 91 32.8 74 23.3 57 57 SSE 9 15 29.68 1005 10 16.0934 0 0
8:54 pm 20:54 Sunny 91 32.8 73 22.8 56 56 SSE 10 17 29.67 1005 10 16.0934 0 0
9:54 pm 21:54 Clear 89 31.7 71 21.7 55 55 S 15 24 29.66 1005 10 16.0934 0 0
10:54 pm 22:54 Clear 86 30 71 21.7 61 61 S 12 19 29.7 1006 10 16.0934 0 0
11:54 pm 23:54 Clear 86 30 70 21.1 59 59 S 12 19 29.7 1006 10 16.0934 0 0

Powered by AerisWeather